Shishmaref, AK

10:56 AM AKDT on April 29, 2017 (GMT -0800)
New Shishmaref

Weather History for PASH - January, 2013

Change the Weather History Date:

Tuesday, January 29, 2013

  Actual Average Record
Temperature  
Mean Temperature -8 °F -  
Max Temperature 1 °F -1 °F 28 °F (2011)
Min Temperature -16 °F -9 °F -40 °F (2000)
Degree Days  
Heating Degree Days 72    
Moisture  
Dew Point -18 °F    
Average Humidity 57    
Maximum Humidity 100    
Minimum Humidity 25    
Precipitation  
Precipitation 0.00 in - - ()
Sea Level Pressure  
Sea Level Pressure 30.07 in    
Wind  
Wind Speed 9 mph (NE)    
Max Wind Speed 16 mph    
Max Gust Speed -    
Visibility 10 miles    
Events      
Averages and records for this station are not official NWS values.
T = Trace of Precipitation, MM = Missing Value Source: NWS Daily Summary

Daily Weather History Graph

Daily Weather History Graph

Search for Another Location

Airport or City:

Trip Planner

Search our weather history database for the weather conditions in past years. The results will help you decide how hot, cold, wet, or windy it might be!

Date:

Astronomy

Jan. 29, 2013 Rise Set
Actual Time 11:11 AM AKST 5:24 PM AKST
Civil Twilight 10:05 AM AKST 6:30 PM AKST
Nautical Twilight 9:00 AM AKST 7:36 PM AKST
Astronomical Twilight 7:59 AM AKST 8:36 PM AKST
Moon 10:25 PM AKST 10:36 AM AKST
Length of Visible Light 8h 25m
Length of Day
6h 13m
Waning Gibbous, 93% of the Moon is Illuminated
Jan 29
Waning Gibbous
Feb 3
Last Quarter
Feb 9
New
Feb 17
First Quarter
Feb 25
Full

Hourly Weather History & Observations

Time (AKST) Temp. Windchill Dew Point Humidity Pressure Visibility Wind Dir Wind Speed Gust Speed Precip Events Conditions
12:16 AM -11.2 °F -23.0 °F -25.6 °F 49% 30.29 in 10.0 mi East 4.6 mph - N/A   Clear
12:36 AM -16.6 °F -31.3 °F - N/A% 30.29 in 10.0 mi SE 5.8 mph - N/A   Clear
12:56 AM -13.0 °F -28.6 °F -25.6 °F 53% 30.28 in 10.0 mi East 6.9 mph - N/A   Clear
1:16 AM -14.8 °F -29.1 °F -27.4 °F 53% 30.28 in 10.0 mi ESE 5.8 mph - N/A   Clear
1:56 AM -14.8 °F -32.2 °F -25.6 °F 58% 30.26 in 10.0 mi East 8.1 mph - N/A   Clear
2:16 AM -14.8 °F -33.5 °F -27.4 °F 53% 30.25 in 10.0 mi East 9.2 mph - N/A   Clear
3:16 AM -11.2 °F -27.8 °F -25.6 °F 49% 30.22 in 10.0 mi ENE 8.1 mph - N/A   Clear
3:36 AM -11.2 °F -30.1 °F -23.8 °F 54% 30.21 in 10.0 mi NE 10.4 mph - N/A   Clear
4:16 AM -11.2 °F -29.0 °F -23.8 °F 54% 30.19 in 10.0 mi NNE 9.2 mph - N/A   Clear
4:36 AM -7.6 °F -24.6 °F -16.6 °F 65% 30.18 in 10.0 mi NNE 9.2 mph - N/A   Clear
4:56 AM -7.6 °F -25.7 °F -7.6 °F 100% 30.18 in 10.0 mi NE 10.4 mph - N/A   Clear
5:16 AM -5.8 °F -23.4 °F - N/A% 30.17 in 10.0 mi NE 10.4 mph - N/A   Clear
5:36 AM -5.8 °F -22.4 °F - N/A% 30.16 in 10.0 mi NE 9.2 mph - N/A   Clear
5:56 AM -7.6 °F -24.6 °F - N/A% 30.16 in 10.0 mi NE 9.2 mph - N/A   Clear
6:16 AM -7.6 °F -25.7 °F - N/A% 30.15 in 10.0 mi NE 10.4 mph - N/A   Clear
6:36 AM -7.6 °F -26.6 °F - N/A% 30.14 in 10.0 mi NE 11.5 mph - N/A   Clear
6:56 AM -5.8 °F -24.4 °F -29.2 °F 32% 30.14 in 10.0 mi NE 11.5 mph - N/A   Clear
7:16 AM -5.8 °F -23.4 °F -27.4 °F 35% 30.13 in 10.0 mi NNE 10.4 mph - N/A   Clear
7:36 AM -5.8 °F -23.4 °F -25.6 °F 38% 30.12 in 10.0 mi NNE 10.4 mph - N/A   Clear
7:56 AM -5.8 °F -23.4 °F -25.6 °F 38% 30.11 in 10.0 mi NNE 10.4 mph - N/A   Clear
8:56 AM -4.0 °F -21.2 °F -22.0 °F 42% 30.10 in 10.0 mi NNE 10.4 mph - N/A   Clear
9:16 AM -5.8 °F -23.4 °F -22.0 °F 46% 30.10 in 10.0 mi NNE 10.4 mph - N/A   Clear
9:56 AM -5.8 °F -22.4 °F -20.2 °F 50% 30.08 in 10.0 mi NNE 9.2 mph - N/A   Clear
10:16 AM -5.8 °F -23.4 °F -18.4 °F 55% 30.08 in 10.0 mi NNE 10.4 mph - N/A   Clear
10:36 AM -5.8 °F -25.2 °F -18.4 °F 55% 30.07 in 10.0 mi NNE 12.7 mph - N/A   Clear
10:56 AM -5.8 °F -23.4 °F -16.6 °F 60% 30.07 in 10.0 mi NE 10.4 mph - N/A   Clear
11:16 AM -5.8 °F -23.4 °F -16.6 °F 60% 30.06 in 10.0 mi NE 10.4 mph - N/A   Clear
11:36 AM -5.8 °F -23.4 °F -16.6 °F 60% 30.05 in 10.0 mi NE 10.4 mph - N/A   Clear
11:56 AM -5.8 °F -21.2 °F -16.6 °F 60% 30.05 in 10.0 mi NNE 8.1 mph - N/A   Clear
12:56 PM -5.8 °F -23.4 °F -14.8 °F 65% 30.03 in 10.0 mi NE 10.4 mph - N/A   Clear
1:36 PM -5.8 °F -23.4 °F -13.0 °F 71% 30.03 in 10.0 mi NE 10.4 mph - N/A   Clear
1:56 PM -2.2 °F -18.9 °F -11.2 °F 66% 30.02 in 10.0 mi NE 10.4 mph - N/A   Clear
2:36 PM -2.2 °F -19.9 °F -11.2 °F 66% 30.01 in 10.0 mi NE 11.5 mph - N/A   Clear
4:16 PM -2.2 °F -19.9 °F -13.0 °F 60% 29.98 in 10.0 mi NE 11.5 mph - N/A   Clear
4:36 PM -2.2 °F -18.9 °F -14.8 °F 55% 29.98 in 10.0 mi NE 10.4 mph - N/A   Clear
4:56 PM -2.2 °F -18.9 °F -14.8 °F 55% 29.97 in 10.0 mi NE 10.4 mph - N/A   Clear
6:16 PM -4.0 °F -21.2 °F -14.8 °F 60% 29.95 in 10.0 mi NE 10.4 mph - N/A   Clear
6:22 PM -4.0 °F -22.1 °F -9.4 °F 78% 29.95 in 10.0 mi NNE 11.5 mph - N/A   Clear
7:16 PM -4.0 °F -21.2 °F -11.2 °F 71% 29.94 in 10.0 mi NE 10.4 mph - N/A   Clear
7:56 PM -2.2 °F -18.9 °F -13.0 °F 60% 29.93 in 10.0 mi NE 10.4 mph - N/A   Clear
8:16 PM -2.2 °F -18.9 °F -16.6 °F 50% 29.93 in 10.0 mi NE 10.4 mph - N/A   Clear
8:36 PM -2.2 °F -19.9 °F -18.4 °F 46% 29.92 in 10.0 mi NE 11.5 mph - N/A   Clear
8:56 PM -0.4 °F -15.7 °F -13.0 °F 55% 29.92 in 10.0 mi ENE 9.2 mph - N/A   Scattered Clouds
9:36 PM -0.4 °F -18.4 °F -5.8 °F 78% 29.90 in 10.0 mi NE 12.7 mph - N/A   Partly Cloudy
9:56 PM -0.4 °F -19.9 °F -13.0 °F 55% 29.89 in 10.0 mi NE 15.0 mph - N/A   Partly Cloudy
10:36 PM -0.4 °F -20.5 °F -18.4 °F 43% 29.88 in 10.0 mi NE 16.1 mph - N/A   Partly Cloudy
10:56 PM -0.4 °F -19.9 °F -5.8 °F 78% 29.88 in 10.0 mi NE 15.0 mph - N/A   Partly Cloudy
11:16 PM 1.4 °F -16.9 °F -0.4 °F 92% 29.87 in 10.0 mi NE 13.8 mph - N/A   Clear
11:56 PM -0.4 °F -19.9 °F -29.2 °F 25% 29.87 in 10.0 mi NE 15.0 mph - N/A   Clear